Home   Weather   Rouen   Past weeks

Flag for France Past Weather in Rouen, Upper Normandy, France — Yesterday and Last 2 Weeks

Now
48 °F

Passing clouds.


Feels Like: 43 °F
Forecast: 38 / 57 °F
Wind: 12 mph from Northwest

Location: Rouen Airport

Current Time: Apr 27, 2017 at 5:06:17 pm

Latest Report: Apr 27, 2017 at 4:30 pm


Visibility: N/A

Pressure: 30.07 "Hg

Humidity: 43%

Dew Point: 27 °F

Location of RouenLocation

Past Weather in Rouen — Graph

°F

Rouen Temperature Yesterday

Maximum temperature yesterday: 46 °F (at 3:00 pm)
Minimum temperature yesterday: 32 °F (at 6:00 am)
Average temperature yesterday: 39 °F

High & Low Weather Summary for the Past Weeks

 TemperatureHumidityPressure
High63 °F (Apr 21, 3:00 pm)100% (Apr 13, 7:00 am)30.63 "Hg (Apr 13, 7:00 am)
Low32 °F (Apr 20, 7:00 am)28% (Apr 20, 4:30 pm)29.86 "Hg (Apr 25, 1:00 am)
Average47 °F68%30.21 "Hg
* Reported Apr 12 3:00 pm — Apr 27 3:30 pm, Rouen, Weather by CustomWeather, © 2017

Note: Actual official high and low records may vary slightly from our data, if they occured in-between our weather recording intervals... More about our weather records

Advertising

Rouen Weather History for the Previous 24 Hours

Scroll right to see more
 ConditionsComfort  
Time TempWeatherWind HumidityBarometerVisibility
3:30 pm
Thu, Apr 27
48 °FPassing clouds.13 mph40%30.09 "HgN/A
2:30 pm48 °FSunny.14 mph40%30.09 "Hg10 mi
2:00 pm50 °FPassing clouds.14 mph40%30.09 "HgN/A
1:30 pm50 °FPassing clouds.12 mph40%30.09 "HgN/A
12:30 pm46 °FBroken clouds.9 mph53%30.09 "HgN/A
12:00 pm48 °FBroken clouds.8 mph50%30.09 "HgN/A
11:30 am48 °FPassing clouds.9 mph54%30.09 "HgN/A
11:00 am46 °FScattered clouds.7 mph62%30.12 "HgN/A
10:30 am45 °FScattered clouds.9 mph66%30.12 "HgN/A
10:00 am43 °FPassing clouds.6 mph71%30.12 "HgN/A
9:30 am43 °FScattered clouds.6 mph76%30.12 "HgN/A
9:00 am37 °FPassing clouds.5 mph81%30.09 "HgN/A
8:30 am37 °FPassing clouds.5 mph87%30.09 "HgN/A
8:00 am36 °FSunny.5 mph87%30.09 "Hg10 mi
7:30 am36 °FPassing clouds.6 mph87%30.09 "HgN/A
6:30 am32 °FClear.3 mph93%30.07 "Hg10 mi
5:30 am36 °FClear.7 mph87%30.07 "Hg10 mi
5:00 am36 °FClear.7 mph87%30.07 "Hg10 mi
4:30 am36 °FClear.6 mph87%30.07 "Hg10 mi
3:30 am36 °FClear.5 mph87%30.07 "Hg10 mi
3:00 am36 °FClear.7 mph87%30.07 "Hg10 mi
2:30 am36 °FClear.5 mph93%30.07 "Hg10 mi
2:00 am36 °FClear.5 mph87%30.07 "Hg10 mi
1:30 am36 °FClear.5 mph87%30.07 "Hg10 mi
12:30 am37 °FClear.5 mph81%30.07 "Hg10 mi
12:00 am37 °FPassing clouds.6 mph81%30.07 "HgN/A
11:30 pm
Wed, Apr 26
37 °FPassing clouds.6 mph81%30.07 "HgN/A
11:00 pm39 °FClear.3 mph75%30.07 "Hg10 mi
10:30 pm39 °FPassing clouds.6 mph75%30.04 "HgN/A
10:00 pm39 °FPassing clouds.6 mph75%30.04 "HgN/A
9:30 pm39 °FClear.5 mph75%30.04 "Hg10 mi
9:00 pm41 °FSunny.6 mph70%30.04 "Hg10 mi
8:30 pm43 °FScattered clouds.9 mph61%30.01 "HgN/A
8:00 pm45 °FBroken clouds.9 mph66%30.01 "HgN/A
7:30 pm43 °FPartly sunny.9 mph66%30.01 "HgN/A
7:00 pm45 °FQuite cool.6 mph71%30.01 "HgN/A
6:30 pm45 °FPassing clouds.9 mph76%30.01 "HgN/A
6:00 pm45 °FMore clouds than sun.12 mph76%30.01 "HgN/A
5:30 pm46 °FBroken clouds.7 mph71%29.98 "HgN/A
5:00 pm45 °FQuite cool.6 mph76%29.98 "HgN/A
Weather by CustomWeather, © 2017

See weather overviewHow to use our weather pages